Weather in Ramenskoe

Russia / Moscow Oblast     55°34′02″N   38°13′33″E
temp.,
°C
wind,
m/s
gust,
m/s
humid.,
%
clouds,
%
prec.,
mm/h
press.,
hPa
HPBL,
m
5 august, thu
thu500:00+15ssw116513 0.0 101711
03:00+13wsw11695 0.0 101711
06:00+15se116790 0.0 101714
09:00+18s2359100 0.0 1017333
12:00+22s244697 0.0 1017975
15:00+23s2451100 0.0 1015760
18:00+16nne2391100 1.4 101555
21:00+15ese3695100 1.6 1014138
6 august, fri
fri600:00+14se379364 0.0 1014151
03:00+14se2391100 0.4 101354
06:00+15s3594100 0.8 1012121
09:00+16sse4698100 5.2 1012231
12:00+16sse4897100 3.2 1013322
15:00+18e3585100 4.0 1012264
18:00+18ene4982100 0.0 1011300
21:00+17e4128489 0.1 1010318
7 august, sat
sat700:00+16e2695100 1.4 1010193
03:00+16ese3796100 4.2 1009201
06:00+16ese259694 0.8 1010139
09:00+22sse468087 1.4 1010346
12:00+25s576452 0.0 1010599
15:00+24ssw3665100 0.2 1011361
18:00+23ese3666100 0.0 1010111
21:00+20sse347580 0.1 101055
8 august, sun
sun800:00+19sw2280100 0.1 101017
03:00+17wsw369699 0.9 1012125
06:00+18wsw1296100 0.8 101179
09:00+19wnw4588100 0.9 1012497
12:00+23wnw455662 0.2 1013981
15:00+25w34450 0.2 10131516
18:00+24w46531 0.0 1014611
21:00+18nw33710 0.0 101535
9 august, mon
mon900:00+16w33775 0.0 101631
03:00+15w33825 0.0 101640
06:00+15wsw237949 0.0 101652
09:00+21w236178 0.0 1016427
12:00+25w34526 0.0 10161411
15:00+27nw35426 0.0 10151942
18:00+26nnw24495 0.0 1014274
21:00+19ne22690 0.0 101511